[[{"header":{"parameterUnit":"m.s-1","parameterCategory":1,"la1":30.2991,"la2":30.254,"lo1":-89.0895,"lo2":-89.0444,"dy":0.0017,"dx":0.0017,"nx":28,"ny":28,"refTime":"2024-03-01T03:00:00:Z","depth":0,"parameterNumber":2,"parameterNumberName":"U-component_of_WINDS"},"data":[0,0,0,0,0,0,0,0,0,0,0,0,0,0,0,0,0,0,0,0,0,0,0,0,0,0,0,0,0,0,0,0,0,0,0,0,0,0,0,0,0,0,0,0,0,0,0,0,0,0,0,0,0,0,0,0,0,0,-0.8454,-0.8454,0,-0.8443,-0.8443,-0.8443,-0.8395,-0.8394,-0.8393,-0.8392,-0.8381,-0.8382,-0.8383,0,0,0,0,0,0,0,0,0,0,0,0,0,-0.8435,-0.8435,-0.8454,-0.8454,-0.8454,-0.8443,-0.8443,-0.8443,-0.8395,-0.8394,-0.8393,-0.8391,-0.8381,-0.8382,-0.8383,0,0,0,0,0,0,0,0,0,0,0,0,0,-0.8436,-0.8436,-0.8454,-0.8429,-0.8427,-0.8443,-0.8443,-0.8443,-0.8396,-0.8394,-0.8392,-0.8391,-0.8381,-0.8382,-0.8383,-0.8423,0,0,-0.8386,-0.8387,0,0,0,0,0,0,0,0,-0.8436,-0.8436,-0.8433,-0.8431,-0.8428,-0.8419,-0.8432,-0.8436,-0.8396,-0.8407,-0.8392,-0.839,-0.8395,-0.8395,-0.8397,-0.8423,-0.8422,-0.8387,-0.8387,-0.8388,-0.8388,0,0,0,0,0,0,0,-0.8436,-0.8436,-0.845,-0.8433,-0.843,-0.8418,-0.8417,-0.8433,-0.8411,-0.8406,-0.8403,-0.8402,-0.8394,-0.8396,-0.8396,-0.8422,-0.8387,-0.8388,-0.8388,-0.8389,-0.848,-0.8482,0,0,0,0,0,0,-0.8439,-0.8437,-0.845,-0.8449,-0.8428,-0.842,-0.8418,-0.8423,-0.841,-0.8407,-0.8404,-0.84,-0.8395,-0.8395,-0.8395,-0.8441,-0.8388,-0.8389,-0.8389,-0.8478,-0.848,-0.8482,0,0,0,0,0,0,-0.8439,-0.8441,-0.8451,-0.8442,-0.8442,-0.8422,-0.8429,-0.8424,-0.8426,-0.8408,-0.8404,-0.841,-0.8393,-0.8394,-0.8416,-0.844,-0.8389,-0.839,-0.8476,-0.8479,-0.8481,-0.8533,0,0,0,0,0,0,-0.8438,-0.8441,-0.8456,-0.8443,-0.8443,-0.8472,-0.843,-0.8425,-0.8428,-0.8423,-0.8413,-0.841,-0.8392,-0.8415,-0.8418,-0.8441,-0.8391,-0.8474,-0.8477,-0.848,-0.8529,-0.8537,-0.8544,0,0,0,0,0,-0.8438,-0.8471,-0.8457,-0.8459,-0.8461,-0.8473,-0.8473,-0.8452,-0.843,-0.8445,-0.8434,-0.841,-0.8437,-0.8418,-0.842,-0.8444,-0.8472,-0.8476,-0.848,-0.8526,-0.8535,-0.8544,0,0,0,0,0,0,-0.8488,-0.8469,-0.8453,-0.8483,-0.848,-0.8465,-0.8483,-0.8463,-0.8467,-0.8462,-0.8436,-0.8434,-0.846,-0.8454,-0.8433,-0.8482,-0.8451,-0.8455,-0.8484,-0.8494,-0.8501,-0.8501,-0.8392,0,0,0,0,0,-0.8503,-0.8513,-0.8496,-0.8525,-0.8524,-0.8504,-0.8508,-0.8492,-0.8488,-0.8487,-0.8477,-0.8474,-0.8482,-0.8487,-0.8494,-0.8528,-0.8525,-0.8546,-0.8553,-0.8559,-0.8563,-0.858,-0.8589,-0.8495,-0.8495,-0.8495,0,0,-0.8533,-0.8524,-0.8532,-0.8534,-0.853,-0.8542,-0.8503,-0.8518,-0.8526,-0.8489,-0.8509,-0.8502,-0.8497,-0.8526,-0.8538,-0.8522,-0.8589,-0.8564,-0.8569,-0.857,-0.8585,-0.8594,-0.8602,-0.8498,-0.8497,-0.8497,0,0,-0.8593,-0.8588,-0.861,-0.8607,-0.8601,-0.8587,-0.8593,-0.8581,-0.8574,-0.8594,-0.8566,-0.8576,-0.8591,-0.8588,-0.8589,-0.8648,-0.8626,-0.8651,-0.8689,-0.8706,-0.8714,-0.872,-0.874,-0.8748,-0.8655,-0.8655,-0.8655,0,-0.8632,-0.8648,-0.8625,-0.864,-0.8642,-0.8609,-0.8631,-0.8629,-0.8625,-0.8627,-0.8609,-0.8626,-0.862,-0.8647,-0.8662,-0.8664,-0.8669,-0.8652,-0.8714,-0.8721,-0.8726,-0.8745,-0.8753,-0.8658,-0.8658,-0.8658,-0.8657,0,-0.8695,-0.8707,-0.8726,-0.8723,-0.8726,-0.8746,-0.8725,-0.8732,-0.8715,-0.8704,-0.8724,-0.8716,-0.872,-0.8726,-0.871,-0.875,-0.874,-0.8719,-0.8687,-0.8739,-0.8756,-0.8763,-0.8663,-0.8662,-0.8661,-0.866,0,0,-0.8787,-0.877,-0.8777,-0.8775,-0.8766,-0.8775,-0.8792,-0.8795,-0.8801,-0.88,-0.8814,-0.8827,-0.8806,-0.8807,-0.8791,-0.8806,-0.8853,-0.8782,-0.8782,-0.8795,-0.8896,-0.8911,-0.892,-0.8838,-0.884,-0.8841,-0.8896,0,-0.8844,-0.8873,-0.8852,-0.8884,-0.8894,-0.8863,-0.8878,-0.8874,-0.8864,-0.8871,-0.886,-0.8869,-0.8842,-0.8842,-0.8856,-0.8844,-0.8872,-0.884,-0.8851,-0.8851,-0.8852,-0.8929,-0.8946,-0.8998,-0.8903,-0.8904,-0.8905,0,-0.8915,-0.8916,-0.8949,-0.8937,-0.894,-0.8954,-0.8955,-0.8963,-0.8958,-0.8949,-0.895,-0.8929,-0.8946,-0.8915,-0.8937,-0.8915,-0.8919,-0.8914,-0.8915,-0.8915,-0.888,-0.893,-0.9014,-0.9022,-0.8915,-0.8914,-0.8914,0,-0.8978,-0.8988,-0.9008,-0.9007,-0.8994,-0.9004,-0.8999,-0.8992,-0.8995,-0.8996,-0.8998,-0.9001,-0.9003,-0.9006,-0.8987,-0.8966,-0.9011,-0.8979,-0.9004,-0.9004,-0.9014,-0.9014,-0.9099,-0.9018,-0.9018,-0.9018,-0.9018,0,-0.9043,-0.9065,-0.9036,-0.9049,-0.9072,-0.9048,-0.9071,-0.9062,-0.9057,-0.9067,-0.904,-0.9051,-0.9025,-0.9033,-0.9019,-0.9039,-0.904,-0.9033,-0.9029,-0.9035,-0.9036,-0.9036,-0.9032,-0.902,-0.9019,-0.9019,-0.9019,0,-0.9117,-0.9099,-0.9119,-0.9104,-0.9101,-0.9119,-0.9106,-0.9117,-0.9105,-0.9119,-0.912,-0.9101,-0.9109,-0.9091,-0.9096,-0.9086,-0.9115,-0.9105,-0.9116,-0.9113,-0.9139,-0.9136,-0.9227,-0.9237,-0.915,-0.9151,-0.9152,0,-0.9159,-0.9175,-0.9162,-0.9166,-0.9163,-0.9171,-0.9174,-0.9151,-0.9155,-0.9149,-0.9161,-0.9167,-0.917,-0.9184,-0.9171,-0.9175,-0.9164,-0.9196,-0.9165,-0.917,-0.9163,-0.9162,-0.9163,-0.9202,-0.9203,-0.9204,-0.9205,0,-0.9237,-0.9227,-0.9232,-0.9233,-0.9237,-0.9237,-0.9235,-0.9241,-0.9216,-0.9222,-0.923,-0.9232,-0.9237,-0.9243,-0.9244,-0.9238,-0.9217,-0.9215,-0.922,-0.9226,-0.9232,-0.9228,-0.9133,-0.9212,-0.9212,-0.9211,-0.9211,-0.921,-0.9296,-0.9307,-0.93,-0.9305,-0.9302,-0.9301,-0.931,-0.9299,-0.9304,-0.9306,-0.9293,-0.9303,-0.9297,-0.9295,-0.9292,-0.93,-0.9286,-0.9294,-0.9296,-0.9299,-0.9302,-0.9231,-0.93,-0.93,-0.93,-0.93,-0.9299,0,-0.9371,-0.9364,-0.937,-0.9368,-0.9372,-0.9352,-0.9349,-0.9354,-0.9363,-0.9359,-0.9362,-0.9371,-0.9376,-0.9363,-0.9366,-0.9375,-0.9365,-0.9376,-0.9375,-0.9374,-0.9316,-0.931,-0.9384,-0.9384,-0.9384,-0.9384,-0.9384,-0.9384,-0.941,-0.9429,-0.9418,-0.9434,-0.9427,-0.9437,-0.9437,-0.9435,-0.9432,-0.9442,-0.9446,-0.9437,-0.9429,-0.9432,-0.9436,-0.9432,-0.9434,-0.9448,-0.9441,-0.9386,-0.9378,-0.937,-0.9364,-0.9449,-0.9449,-0.9498,-0.9499,-0.9499]},{"header":{"parameterUnit":"m.s-1","parameterCategory":1,"la1":30.2991,"la2":30.254,"lo1":-89.0895,"lo2":-89.0444,"dy":0.0017,"dx":0.0017,"nx":28,"ny":28,"refTime":"2024-03-01T03:00:00:Z","depth":0,"parameterNumber":3,"parameterNumberName":"V-component_of_WINDS"},"data":[0,0,0,0,0,0,0,0,0,0,0,0,0,0,0,0,0,0,0,0,0,0,0,0,0,0,0,0,0,0,0,0,0,0,0,0,0,0,0,0,0,0,0,0,0,0,0,0,0,0,0,0,0,0,0,0,0,0,0.327,0.3271,0,0.3436,0.3438,0.344,0.3517,0.3517,0.3517,0.3516,0.3692,0.3696,0.3701,0,0,0,0,0,0,0,0,0,0,0,0,0,0.3022,0.3026,0.3269,0.3272,0.3274,0.3436,0.3438,0.344,0.3517,0.3517,0.3517,0.3516,0.369,0.3696,0.3702,0,0,0,0,0,0,0,0,0,0,0,0,0,0.3153,0.3028,0.3269,0.3331,0.3338,0.3435,0.3438,0.3441,0.3517,0.3517,0.3516,0.3516,0.3688,0.3695,0.3702,0.3751,0,0,0.3724,0.3728,0,0,0,0,0,0,0,0,0.3146,0.3162,0.332,0.3327,0.3335,0.3455,0.3415,0.3545,0.3517,0.3449,0.3516,0.3516,0.3614,0.3627,0.3659,0.376,0.3767,0.3725,0.373,0.3733,0.3735,0,0,0,0,0,0,0,0.3136,0.3155,0.3336,0.3322,0.3332,0.3352,0.3371,0.344,0.3531,0.3455,0.3461,0.348,0.3618,0.3652,0.3664,0.377,0.3725,0.3731,0.3736,0.3739,0.3919,0.3919,0,0,0,0,0,0,0.3117,0.3147,0.333,0.3341,0.3238,0.3357,0.3377,0.3417,0.353,0.3547,0.348,0.3483,0.3639,0.3655,0.367,0.3735,0.3733,0.3739,0.3743,0.3918,0.3919,0.3919,0,0,0,0,0,0,0.3111,0.3132,0.3324,0.3246,0.3271,0.3361,0.3405,0.3421,0.3454,0.3549,0.3566,0.3497,0.364,0.366,0.373,0.3742,0.3743,0.3749,0.3918,0.3919,0.3919,0.3864,0,0,0,0,0,0,0.3104,0.313,0.3148,0.3245,0.3275,0.3379,0.3406,0.3424,0.3466,0.3472,0.357,0.3586,0.3641,0.3719,0.3737,0.3752,0.3755,0.3917,0.3918,0.3919,0.3865,0.3863,0.3861,0,0,0,0,0,0.3094,0.3127,0.3149,0.3171,0.33,0.338,0.3397,0.3459,0.3467,0.3487,0.3547,0.3583,0.3737,0.3725,0.3747,0.3764,0.3917,0.3918,0.3919,0.3866,0.3863,0.3861,0,0,0,0,0,0,0.3032,0.3141,0.3166,0.3231,0.3295,0.3393,0.342,0.3454,0.3519,0.3521,0.3597,0.3618,0.3682,0.373,0.3715,0.3817,0.383,0.3836,0.3783,0.3781,0.3779,0.3766,0.3761,0,0,0,0,0,0.3025,0.3079,0.3173,0.3221,0.3252,0.333,0.3367,0.3409,0.3479,0.3507,0.3573,0.3641,0.3705,0.3745,0.381,0.3872,0.3895,0.3894,0.3892,0.3889,0.3894,0.393,0.3931,0.3923,0.3923,0.3923,0,0,0.3012,0.3079,0.3109,0.321,0.3264,0.332,0.3352,0.341,0.3452,0.3517,0.3586,0.3637,0.3718,0.3784,0.3817,0.3826,0.3901,0.3891,0.3888,0.3894,0.3932,0.3932,0.3933,0.3924,0.3923,0.3923,0,0,0.3018,0.3073,0.3119,0.3173,0.3254,0.3306,0.3317,0.3409,0.3444,0.3515,0.3564,0.3616,0.3725,0.378,0.3823,0.3847,0.3883,0.3866,0.3855,0.389,0.389,0.3891,0.3901,0.3903,0.387,0.387,0.387,0,0.2993,0.3077,0.3139,0.3194,0.3237,0.3295,0.3343,0.3392,0.3491,0.352,0.3529,0.3665,0.3724,0.3804,0.381,0.3842,0.3858,0.3856,0.3885,0.3886,0.3888,0.3898,0.3901,0.3867,0.3867,0.3868,0.3868,0,0.3042,0.3099,0.3127,0.3218,0.3265,0.3315,0.3387,0.3426,0.3464,0.3515,0.3586,0.3658,0.3738,0.376,0.3798,0.3846,0.3849,0.387,0.3885,0.3885,0.3896,0.39,0.3863,0.3864,0.3865,0.3866,0,0,0.3014,0.3138,0.3147,0.3189,0.3282,0.3329,0.3382,0.3458,0.3491,0.3557,0.3604,0.3694,0.3714,0.3762,0.3806,0.3837,0.3852,0.3855,0.3858,0.3852,0.391,0.3893,0.3896,0.3875,0.3876,0.3877,0.3903,0,0.3033,0.3129,0.3186,0.3261,0.3315,0.337,0.3417,0.348,0.3528,0.3583,0.3638,0.37,0.3721,0.375,0.3783,0.3843,0.3865,0.3842,0.3922,0.3924,0.39,0.3902,0.3885,0.3906,0.3907,0.3908,0.3909,0,0.3068,0.313,0.3208,0.3295,0.332,0.336,0.3434,0.3485,0.3558,0.3591,0.3643,0.3688,0.3748,0.3757,0.3841,0.3824,0.3861,0.3895,0.3897,0.3908,0.3917,0.3913,0.3914,0.3918,0.3916,0.3915,0.3915,0,0.3039,0.3143,0.3204,0.3238,0.334,0.3367,0.3412,0.3484,0.3525,0.359,0.3618,0.369,0.3729,0.3784,0.3847,0.3848,0.3926,0.394,0.3956,0.3955,0.3971,0.3969,0.3978,0.3992,0.3992,0.3992,0.3992,0,0.3055,0.3101,0.3192,0.3229,0.3283,0.3348,0.34,0.3449,0.3512,0.3561,0.3614,0.3659,0.3739,0.3794,0.3843,0.3906,0.3923,0.3953,0.3966,0.3949,0.3945,0.3974,0.3975,0.3993,0.3993,0.3993,0.3993,0,0.3033,0.3096,0.3165,0.3255,0.3279,0.3314,0.3393,0.3431,0.3482,0.3543,0.3561,0.3642,0.3709,0.3777,0.3869,0.3902,0.3964,0.3981,0.3938,0.3946,0.3958,0.3956,0.3987,0.3995,0.4002,0.4002,0.4002,0,0.3039,0.3075,0.3168,0.3204,0.3246,0.3303,0.3345,0.3411,0.3453,0.3537,0.3566,0.3637,0.3697,0.3803,0.3871,0.3941,0.3961,0.3967,0.3972,0.3954,0.3962,0.3959,0.3963,0.3965,0.3964,0.3964,0.3964,0,0.3043,0.3072,0.3129,0.3197,0.3245,0.3303,0.3363,0.3389,0.3467,0.3512,0.358,0.3626,0.3719,0.3789,0.3867,0.3915,0.3953,0.3961,0.3969,0.3952,0.3926,0.3941,0.3933,0.3961,0.3961,0.3961,0.3961,0.3961,0.3036,0.3071,0.3141,0.3203,0.3254,0.3308,0.3349,0.3404,0.3461,0.354,0.3576,0.3645,0.3717,0.3826,0.3872,0.3928,0.3939,0.3949,0.3952,0.3954,0.395,0.3916,0.3943,0.3943,0.3943,0.3943,0.3944,0,0.3043,0.309,0.3147,0.3227,0.3276,0.3305,0.3372,0.3412,0.3471,0.3534,0.3592,0.3671,0.3739,0.3811,0.3883,0.3914,0.3934,0.3931,0.393,0.3941,0.3937,0.3923,0.3915,0.3915,0.3915,0.3915,0.3915,0.3915,0.3052,0.3112,0.3149,0.3235,0.3283,0.335,0.3385,0.3436,0.3486,0.3571,0.3627,0.3673,0.374,0.3818,0.3882,0.3902,0.3927,0.3919,0.3944,0.3939,0.3941,0.3943,0.3931,0.3924,0.3924,0.3944,0.3944,0.3944]}]]